Year,Month,Day,Hour,Minute,Value (Times are PST for windspeed in km/hr)
2010,07,13,00,00,20.60
2010,07,13,00,01,27.10
2010,07,13,00,02,16.60
2010,07,13,00,03,14.50
2010,07,13,00,04,22.40
2010,07,13,00,05,22.50
2010,07,13,00,06,20.40
2010,07,13,00,07,19.70
2010,07,13,00,08,20.80
2010,07,13,00,09,14.70
2010,07,13,00,10,11.30
2010,07,13,00,11,14.40
2010,07,13,00,12,17.10
2010,07,13,00,18,10.60
2010,07,13,00,19,8.60
2010,07,13,00,20,17.10
2010,07,13,00,21,20.50
2010,07,13,00,22,21.20
2010,07,13,00,23,16.20
2010,07,13,00,24,8.90
2010,07,13,00,25,22.40
2010,07,13,00,26,21.70
2010,07,13,00,27,13.50
2010,07,13,00,28,8.50
2010,07,13,00,29,20.70
2010,07,13,00,30,20.10
2010,07,13,00,31,5.10
2010,07,13,00,32,19.60
2010,07,13,00,33,20.80
2010,07,13,00,34,22.80
2010,07,13,00,35,18.00
2010,07,13,00,36,15.40
2010,07,13,00,37,8.50
2010,07,13,00,38,14.70
2010,07,13,00,39,12.60
2010,07,13,00,40,7.20
2010,07,13,00,41,11.40
2010,07,13,00,42,13.70
2010,07,13,00,43,18.00
2010,07,13,00,44,15.70
2010,07,13,00,45,5.60
2010,07,13,00,46,13.20
2010,07,13,00,47,7.50
2010,07,13,00,48,6.30
2010,07,13,00,49,9.70
2010,07,13,00,50,10.30
2010,07,13,00,51,16.00
2010,07,13,00,52,13.60
2010,07,13,00,53,16.00
2010,07,13,00,54,11.90
2010,07,13,00,55,7.30
2010,07,13,00,56,15.80
2010,07,13,00,57,14.90
2010,07,13,00,58,13.00
2010,07,13,00,59,12.30
2010,07,13,01,00,17.00
2010,07,13,01,01,19.70
2010,07,13,01,02,15.50
2010,07,13,01,03,14.20
2010,07,13,01,04,17.40
2010,07,13,01,05,18.50
2010,07,13,01,06,11.90
2010,07,13,01,07,13.40
2010,07,13,01,08,13.30
2010,07,13,01,09,7.50
2010,07,13,01,10,8.50
2010,07,13,01,11,11.20
2010,07,13,01,12,11.90
2010,07,13,01,13,19.10
2010,07,13,01,14,14.30
2010,07,13,01,15,13.50
2010,07,13,01,16,10.50
2010,07,13,01,17,16.70
2010,07,13,01,18,18.10
2010,07,13,01,19,14.10
2010,07,13,01,20,11.40
2010,07,13,01,21,16.60
2010,07,13,01,22,23.00
2010,07,13,01,23,20.20
2010,07,13,01,24,13.90
2010,07,13,01,25,10.80
2010,07,13,01,26,7.80
2010,07,13,01,27,8.50
2010,07,13,01,28,16.20
2010,07,13,01,29,11.90
2010,07,13,01,30,7.10
2010,07,13,01,31,4.70
2010,07,13,01,32,10.80
2010,07,13,01,33,6.50
2010,07,13,01,34,8.10
2010,07,13,01,35,10.00
2010,07,13,01,36,9.30
2010,07,13,01,37,5.80
2010,07,13,01,38,6.60
2010,07,13,01,39,9.50
2010,07,13,01,40,9.70
2010,07,13,01,41,5.80
2010,07,13,01,42,12.80
2010,07,13,01,43,8.30
2010,07,13,01,44,10.80
2010,07,13,01,45,16.40
2010,07,13,01,46,8.70
2010,07,13,01,47,9.60
2010,07,13,01,48,7.90
2010,07,13,01,49,8.20
2010,07,13,01,50,12.10
2010,07,13,01,51,8.10
2010,07,13,01,52,13.30
2010,07,13,01,53,18.40
2010,07,13,01,54,15.50
2010,07,13,01,55,4.20
2010,07,13,01,56,6.10
2010,07,13,01,57,8.60
2010,07,13,01,58,14.30
2010,07,13,01,59,9.80
2010,07,13,02,00,11.10
2010,07,13,02,01,9.60
2010,07,13,02,02,5.50
2010,07,13,02,03,16.00
2010,07,13,02,04,10.60
2010,07,13,02,05,11.40
2010,07,13,02,06,16.30
2010,07,13,02,07,13.40
2010,07,13,02,08,8.60
2010,07,13,02,09,12.50
2010,07,13,02,10,10.70
2010,07,13,02,11,12.00
2010,07,13,02,12,8.80
2010,07,13,02,13,17.10
2010,07,13,02,14,14.70
2010,07,13,02,15,5.10
2010,07,13,02,16,8.90
2010,07,13,02,17,13.60
2010,07,13,02,18,13.30
2010,07,13,02,19,7.40
2010,07,13,02,20,8.00
2010,07,13,02,21,6.50
2010,07,13,02,22,7.60
2010,07,13,02,23,8.00
2010,07,13,02,24,7.80
2010,07,13,02,25,10.90
2010,07,13,02,26,11.40
2010,07,13,02,27,4.40
2010,07,13,02,28,6.20
2010,07,13,02,29,11.70
2010,07,13,02,30,11.30
2010,07,13,02,31,8.10
2010,07,13,02,32,7.50
2010,07,13,02,33,8.20
2010,07,13,02,34,5.80
2010,07,13,02,35,2.70
2010,07,13,02,36,6.30
2010,07,13,02,37,6.10
2010,07,13,02,38,7.90
2010,07,13,02,39,6.20
2010,07,13,02,40,8.10
2010,07,13,02,41,4.30
2010,07,13,02,42,3.70
2010,07,13,02,43,8.60
2010,07,13,02,44,8.10
2010,07,13,02,45,4.10
2010,07,13,02,46,8.60
2010,07,13,02,47,4.00
2010,07,13,02,48,7.70
2010,07,13,02,49,4.60
2010,07,13,02,50,3.50
2010,07,13,02,51,8.50
2010,07,13,02,52,5.20
2010,07,13,02,53,0.70
2010,07,13,02,54,1.80
2010,07,13,02,55,0.90
2010,07,13,02,56,4.90
2010,07,13,02,57,10.90
2010,07,13,02,58,8.20
2010,07,13,02,59,5.10
2010,07,13,03,00,1.90
2010,07,13,03,01,1.40
2010,07,13,03,02,4.90
2010,07,13,03,03,1.20
2010,07,13,03,04,2.50
2010,07,13,03,05,5.30
2010,07,13,03,06,7.10
2010,07,13,03,07,6.90
2010,07,13,03,08,6.90
2010,07,13,03,09,5.10
2010,07,13,03,10,2.70
2010,07,13,03,11,2.50
2010,07,13,03,12,4.30
2010,07,13,03,13,11.90
2010,07,13,03,14,7.00
2010,07,13,03,15,3.50
2010,07,13,03,16,4.10
2010,07,13,03,17,4.60
2010,07,13,03,18,4.50
2010,07,13,03,19,2.20
2010,07,13,03,20,5.70
2010,07,13,03,21,4.00
2010,07,13,03,22,1.20
2010,07,13,03,23,1.80
2010,07,13,03,24,6.10
2010,07,13,03,25,7.50
2010,07,13,03,26,3.60
2010,07,13,03,27,0.10
2010,07,13,03,28,3.20
2010,07,13,03,29,2.90
2010,07,13,03,30,0.10
2010,07,13,03,31,1.00
2010,07,13,03,32,2.30
2010,07,13,03,33,0.30
2010,07,13,03,34,1.90
2010,07,13,03,35,0.60
2010,07,13,03,36,3.40
2010,07,13,03,37,5.10
2010,07,13,03,38,2.90
2010,07,13,03,39,3.60
2010,07,13,03,40,0.20
2010,07,13,03,41,3.00
2010,07,13,03,42,3.10
2010,07,13,03,43,2.70
2010,07,13,03,44,2.50
2010,07,13,03,45,1.90
2010,07,13,03,46,1.20
2010,07,13,03,47,5.00
2010,07,13,03,48,2.90
2010,07,13,03,49,3.70
2010,07,13,03,50,1.30
2010,07,13,03,51,2.50
2010,07,13,03,52,2.30
2010,07,13,03,53,5.80
2010,07,13,03,54,5.10
2010,07,13,03,55,0.60
2010,07,13,03,56,1.90
2010,07,13,03,57,0.10
2010,07,13,03,58,0.10
2010,07,13,03,59,0.00
2010,07,13,04,00,0.70
2010,07,13,04,01,2.90
2010,07,13,04,02,2.50
2010,07,13,04,03,4.20
2010,07,13,04,04,2.10
2010,07,13,04,05,0.20
2010,07,13,04,06,3.80
2010,07,13,04,07,4.30
2010,07,13,04,08,2.00
2010,07,13,04,09,0.10
2010,07,13,04,10,0.00
2010,07,13,04,11,0.10
2010,07,13,04,12,2.10
2010,07,13,04,13,1.20
2010,07,13,04,14,1.70
2010,07,13,04,15,0.00
2010,07,13,04,16,0.00
2010,07,13,04,17,0.00
2010,07,13,04,18,0.00
2010,07,13,04,19,0.00
2010,07,13,04,20,0.00
2010,07,13,04,21,0.00
2010,07,13,04,22,0.00
2010,07,13,04,23,1.90
2010,07,13,04,24,0.00
2010,07,13,04,25,0.40
2010,07,13,04,26,3.60
2010,07,13,04,27,3.90
2010,07,13,04,28,0.90
2010,07,13,04,29,0.00
2010,07,13,04,30,0.00
2010,07,13,04,31,0.00
2010,07,13,04,32,0.10
2010,07,13,04,33,0.60
2010,07,13,04,34,1.40
2010,07,13,04,35,2.50
2010,07,13,04,36,1.10
2010,07,13,04,37,0.00
2010,07,13,04,38,0.00
2010,07,13,04,39,0.00
2010,07,13,04,40,0.10
2010,07,13,04,41,0.20
2010,07,13,04,42,0.00
2010,07,13,04,43,0.00
2010,07,13,04,44,0.00
2010,07,13,04,45,0.00
2010,07,13,04,46,0.00
2010,07,13,04,47,0.00
2010,07,13,04,48,0.00
2010,07,13,04,49,0.00
2010,07,13,04,50,0.00
2010,07,13,04,51,0.00
2010,07,13,04,52,0.00
2010,07,13,04,53,0.30
2010,07,13,04,54,0.30
2010,07,13,04,55,0.10
2010,07,13,04,56,0.30
2010,07,13,04,57,0.50
2010,07,13,04,58,1.40
2010,07,13,04,59,0.90
2010,07,13,05,00,1.10
2010,07,13,05,01,0.10
2010,07,13,05,02,0.20
2010,07,13,05,03,0.00
2010,07,13,05,04,0.10
2010,07,13,05,05,0.00
2010,07,13,05,06,0.00
2010,07,13,05,07,1.30
2010,07,13,05,08,2.30
2010,07,13,05,09,1.00
2010,07,13,05,10,2.20
2010,07,13,05,11,0.20
2010,07,13,05,12,0.00
2010,07,13,05,13,2.30
2010,07,13,05,14,0.30
2010,07,13,05,15,0.00
2010,07,13,05,16,0.00
2010,07,13,05,17,0.00
2010,07,13,05,18,0.00
2010,07,13,05,19,0.00
2010,07,13,05,20,0.30
2010,07,13,05,21,0.50
2010,07,13,05,22,0.00
2010,07,13,05,23,0.00
2010,07,13,05,24,0.00
2010,07,13,05,25,0.00
2010,07,13,05,26,0.00
2010,07,13,05,27,0.00
2010,07,13,05,28,0.00
2010,07,13,05,29,0.00
2010,07,13,05,30,0.00
2010,07,13,05,31,0.10
2010,07,13,05,32,0.00
2010,07,13,05,33,0.00
2010,07,13,05,34,0.00
2010,07,13,05,35,0.00
2010,07,13,05,36,0.00
2010,07,13,05,37,0.00
2010,07,13,05,38,0.00
2010,07,13,05,39,0.00
2010,07,13,05,40,0.00
2010,07,13,05,41,0.00
2010,07,13,05,42,0.00
2010,07,13,05,43,0.00
2010,07,13,05,44,0.00
2010,07,13,05,45,0.00
2010,07,13,05,46,0.00
2010,07,13,05,47,0.00
2010,07,13,05,48,0.00
2010,07,13,05,49,0.00
2010,07,13,05,50,0.00
2010,07,13,05,51,0.00
2010,07,13,05,52,0.00
2010,07,13,05,53,0.00
2010,07,13,05,54,0.00
2010,07,13,05,55,0.00
2010,07,13,05,56,0.00
2010,07,13,05,57,0.00
2010,07,13,05,58,0.00
2010,07,13,05,59,0.00
2010,07,13,06,00,0.00
2010,07,13,06,01,0.00
2010,07,13,06,02,0.10
2010,07,13,06,03,3.40
2010,07,13,06,04,4.20
2010,07,13,06,05,0.90
2010,07,13,06,06,3.80
2010,07,13,06,07,2.40
2010,07,13,06,08,4.00
2010,07,13,06,09,0.20
2010,07,13,06,10,0.30
2010,07,13,06,11,2.30
2010,07,13,06,12,0.10
2010,07,13,06,13,0.00
2010,07,13,06,14,0.00
2010,07,13,06,15,0.00
2010,07,13,06,16,0.00
2010,07,13,06,17,1.00
2010,07,13,06,18,0.30
2010,07,13,06,19,0.00
2010,07,13,06,20,0.30
2010,07,13,06,21,3.00
2010,07,13,06,22,4.60
2010,07,13,06,23,0.30
2010,07,13,06,24,1.40
2010,07,13,06,25,2.60
2010,07,13,06,26,0.10
2010,07,13,06,27,0.00
2010,07,13,06,28,0.00
2010,07,13,06,29,0.00
2010,07,13,06,30,1.70
2010,07,13,06,31,4.70
2010,07,13,06,32,3.00
2010,07,13,06,33,2.10
2010,07,13,06,34,3.30
2010,07,13,06,35,4.40
2010,07,13,06,36,4.60
2010,07,13,06,37,4.00
2010,07,13,06,38,1.20
2010,07,13,06,39,0.60
2010,07,13,06,40,0.00
2010,07,13,06,41,0.00
2010,07,13,06,42,0.00
2010,07,13,06,43,0.00
2010,07,13,06,44,0.00
2010,07,13,06,45,0.00
2010,07,13,06,46,0.00
2010,07,13,06,47,0.00
2010,07,13,06,48,1.00
2010,07,13,06,49,0.00
2010,07,13,06,50,0.00
2010,07,13,06,51,1.60
2010,07,13,06,52,0.00
2010,07,13,06,53,0.00
2010,07,13,06,54,0.00
2010,07,13,06,55,4.10
2010,07,13,06,56,2.70
2010,07,13,06,57,0.40
2010,07,13,06,58,0.50
2010,07,13,06,59,0.30
2010,07,13,07,00,0.10
2010,07,13,07,01,0.00
2010,07,13,07,02,0.00
2010,07,13,07,03,0.00
2010,07,13,07,04,1.00
2010,07,13,07,05,0.10
2010,07,13,07,06,0.00
2010,07,13,07,07,0.00
2010,07,13,07,08,0.00
2010,07,13,07,09,0.00
2010,07,13,07,10,0.00
2010,07,13,07,11,0.00
2010,07,13,07,12,0.00
2010,07,13,07,13,0.00
2010,07,13,07,14,0.00
2010,07,13,07,15,0.10
2010,07,13,07,16,0.20
2010,07,13,07,17,0.00
2010,07,13,07,18,0.00
2010,07,13,07,19,0.00
2010,07,13,07,20,0.00
2010,07,13,07,21,0.00
2010,07,13,07,22,0.00
2010,07,13,07,23,0.00
2010,07,13,07,24,0.00
2010,07,13,07,25,0.00
2010,07,13,07,26,0.00
2010,07,13,07,27,0.00
2010,07,13,07,28,0.10
2010,07,13,07,29,0.00
2010,07,13,07,30,0.00
2010,07,13,07,31,0.00
2010,07,13,07,32,0.00
2010,07,13,07,33,0.20
2010,07,13,07,34,0.00
2010,07,13,07,35,0.00
2010,07,13,07,36,0.00
2010,07,13,07,37,0.10
2010,07,13,07,38,0.00
2010,07,13,07,39,0.00
2010,07,13,07,40,0.00
2010,07,13,07,41,0.00
2010,07,13,07,42,0.00
2010,07,13,07,43,0.00
2010,07,13,07,44,0.00
2010,07,13,07,45,0.00
2010,07,13,07,46,0.00
2010,07,13,07,47,0.00
2010,07,13,07,48,0.00
2010,07,13,07,49,0.00
2010,07,13,07,50,0.00
2010,07,13,07,51,0.00
2010,07,13,07,52,0.00
2010,07,13,07,53,0.00
2010,07,13,07,54,0.00
2010,07,13,07,55,0.00
2010,07,13,07,56,0.00
2010,07,13,07,57,0.00
2010,07,13,07,58,0.20
2010,07,13,07,59,0.00
2010,07,13,08,00,0.00
2010,07,13,08,01,0.00
2010,07,13,08,02,0.00
2010,07,13,08,03,0.00
2010,07,13,08,04,0.00
2010,07,13,08,05,0.00
2010,07,13,08,06,0.00
2010,07,13,08,07,0.30
2010,07,13,08,08,5.00
2010,07,13,08,09,6.00
2010,07,13,08,10,1.40
2010,07,13,08,11,3.40
2010,07,13,08,12,3.30
2010,07,13,08,13,3.90
2010,07,13,08,14,3.20
2010,07,13,08,15,2.80
2010,07,13,08,16,3.90
2010,07,13,08,17,2.70
2010,07,13,08,18,0.00
2010,07,13,08,19,2.30
2010,07,13,08,20,0.30
2010,07,13,08,21,0.10
2010,07,13,08,22,0.00
2010,07,13,08,23,0.10
2010,07,13,08,24,3.60
2010,07,13,08,25,4.10
2010,07,13,08,26,3.10
2010,07,13,08,27,10.00
2010,07,13,08,28,7.10
2010,07,13,08,29,2.40
2010,07,13,08,30,6.60
2010,07,13,08,31,6.30
2010,07,13,08,32,5.30
2010,07,13,08,33,6.40
2010,07,13,08,34,6.90
2010,07,13,08,35,5.90
2010,07,13,08,36,1.90
2010,07,13,08,37,2.10
2010,07,13,08,38,1.40
2010,07,13,08,39,2.50
2010,07,13,08,40,4.30
2010,07,13,08,41,6.50
2010,07,13,08,42,6.00
2010,07,13,08,43,4.80
2010,07,13,08,44,2.40
2010,07,13,08,45,5.10
2010,07,13,08,46,3.90
2010,07,13,08,47,3.70
2010,07,13,08,48,0.90
2010,07,13,08,49,1.90
2010,07,13,08,50,1.40
2010,07,13,08,51,1.40
2010,07,13,08,52,4.40
2010,07,13,08,53,0.00
2010,07,13,08,54,0.00
2010,07,13,08,55,4.20
2010,07,13,08,56,5.70
2010,07,13,08,57,3.10
2010,07,13,08,58,2.40
2010,07,13,08,59,2.50
2010,07,13,09,00,1.30
2010,07,13,09,01,0.60
2010,07,13,09,02,0.70
2010,07,13,09,03,1.30
2010,07,13,09,04,2.60
2010,07,13,09,05,3.50
2010,07,13,09,06,3.70
2010,07,13,09,07,1.90
2010,07,13,09,08,3.90
2010,07,13,09,09,3.90
2010,07,13,09,10,3.50
2010,07,13,09,11,1.50
2010,07,13,09,12,2.20
2010,07,13,09,13,0.30
2010,07,13,09,14,3.70
2010,07,13,09,15,3.00
2010,07,13,09,16,1.70
2010,07,13,09,17,0.00
2010,07,13,09,18,0.30
2010,07,13,09,19,5.90
2010,07,13,09,20,10.40
2010,07,13,09,21,5.30
2010,07,13,09,22,5.30
2010,07,13,09,23,7.00
2010,07,13,09,24,3.60
2010,07,13,09,25,1.10
2010,07,13,09,26,8.00
2010,07,13,09,27,1.00
2010,07,13,09,28,4.20
2010,07,13,09,29,1.40
2010,07,13,09,30,4.70
2010,07,13,09,31,8.20
2010,07,13,09,32,3.50
2010,07,13,09,33,3.10
2010,07,13,09,34,3.00
2010,07,13,09,35,3.50
2010,07,13,09,36,5.60
2010,07,13,09,37,6.20
2010,07,13,09,38,9.00
2010,07,13,09,39,8.10
2010,07,13,09,40,8.10
2010,07,13,09,41,4.50
2010,07,13,09,42,5.00
2010,07,13,09,43,8.90
2010,07,13,09,44,4.30
2010,07,13,09,45,3.20
2010,07,13,09,46,3.60
2010,07,13,09,47,4.70
2010,07,13,09,48,2.00
2010,07,13,09,49,0.00
2010,07,13,09,50,0.10
2010,07,13,09,51,0.00
2010,07,13,09,52,1.10
2010,07,13,09,53,1.90
2010,07,13,09,54,5.80
2010,07,13,09,55,2.00
2010,07,13,09,56,3.20
2010,07,13,09,57,8.50
2010,07,13,09,58,4.20
2010,07,13,09,59,2.20
2010,07,13,10,00,4.40
2010,07,13,10,01,15.40
2010,07,13,10,02,5.70
2010,07,13,10,03,5.80
2010,07,13,10,04,1.20
2010,07,13,10,05,0.10
2010,07,13,10,06,1.40
2010,07,13,10,07,6.40
2010,07,13,10,08,5.50
2010,07,13,10,09,5.60
2010,07,13,10,10,3.90
2010,07,13,10,11,2.10
2010,07,13,10,12,0.00
2010,07,13,10,13,2.60
2010,07,13,10,14,1.40
2010,07,13,10,15,2.80
2010,07,13,10,16,5.20
2010,07,13,10,17,7.00
2010,07,13,10,18,8.30
2010,07,13,10,19,5.20
2010,07,13,10,20,3.60
2010,07,13,10,21,3.80
2010,07,13,10,22,4.80
2010,07,13,10,23,2.30
2010,07,13,10,24,8.10
2010,07,13,10,25,7.40
2010,07,13,10,26,3.90
2010,07,13,10,27,4.30
2010,07,13,10,28,4.20
2010,07,13,10,29,3.60
2010,07,13,10,30,3.50
2010,07,13,10,31,4.50
2010,07,13,10,32,2.10
2010,07,13,10,33,0.70
2010,07,13,10,34,1.60
2010,07,13,10,35,0.50
2010,07,13,10,36,4.00
2010,07,13,10,37,4.60
2010,07,13,10,38,1.20
2010,07,13,10,39,2.90
2010,07,13,10,40,5.00
2010,07,13,10,41,1.40
2010,07,13,10,42,3.70
2010,07,13,10,43,3.00
2010,07,13,10,44,5.20
2010,07,13,10,45,8.50
2010,07,13,10,46,5.00
2010,07,13,10,47,9.90
2010,07,13,10,48,10.30
2010,07,13,10,49,7.00
2010,07,13,10,50,1.30
2010,07,13,10,51,4.20
2010,07,13,10,52,4.40
2010,07,13,10,53,1.50
2010,07,13,10,54,0.20
2010,07,13,10,55,6.90
2010,07,13,10,56,6.20
2010,07,13,10,57,8.40
2010,07,13,10,58,10.10
2010,07,13,10,59,8.90
2010,07,13,11,00,6.40
2010,07,13,11,01,3.10
2010,07,13,11,02,0.30
2010,07,13,11,03,5.40
2010,07,13,11,04,6.50
2010,07,13,11,05,4.70
2010,07,13,11,06,4.20
2010,07,13,11,07,0.40
2010,07,13,11,08,2.40
2010,07,13,11,09,12.10
2010,07,13,11,10,7.90
2010,07,13,11,11,4.30
2010,07,13,11,12,4.00
2010,07,13,11,13,10.50
2010,07,13,11,14,11.30
2010,07,13,11,15,5.90
2010,07,13,11,16,3.10
2010,07,13,11,17,6.10
2010,07,13,11,18,6.10
2010,07,13,11,19,7.40
2010,07,13,11,20,4.70
2010,07,13,11,21,5.10
2010,07,13,11,22,7.50
2010,07,13,11,23,6.40
2010,07,13,11,24,4.60
2010,07,13,11,25,10.00
2010,07,13,11,26,5.20
2010,07,13,11,27,1.30
2010,07,13,11,28,2.20
2010,07,13,11,29,2.60
2010,07,13,11,30,4.40
2010,07,13,11,31,1.20
2010,07,13,11,32,2.50
2010,07,13,11,33,7.80
2010,07,13,11,34,8.50
2010,07,13,11,35,9.20
2010,07,13,11,36,5.40
2010,07,13,11,37,4.70
2010,07,13,11,38,2.30
2010,07,13,11,39,3.70
2010,07,13,11,40,7.20
2010,07,13,11,41,2.10
2010,07,13,11,42,4.60
2010,07,13,11,43,10.30
2010,07,13,11,44,5.10
2010,07,13,11,45,0.30
2010,07,13,11,46,5.30
2010,07,13,11,47,2.50
2010,07,13,11,48,2.90
2010,07,13,11,49,4.60
2010,07,13,11,50,1.70
2010,07,13,11,51,5.50
2010,07,13,11,52,2.00
2010,07,13,11,53,0.90
2010,07,13,11,54,0.20
2010,07,13,11,55,0.60
2010,07,13,11,56,5.80
2010,07,13,11,57,3.60
2010,07,13,11,58,6.30
2010,07,13,11,59,6.60
2010,07,13,12,00,4.40
2010,07,13,12,01,4.00
2010,07,13,12,02,6.90
2010,07,13,12,03,3.50
2010,07,13,12,04,4.40
2010,07,13,12,05,4.00
2010,07,13,12,06,5.40
2010,07,13,12,07,10.30
2010,07,13,12,08,11.70
2010,07,13,12,09,13.60
2010,07,13,12,10,16.80
2010,07,13,12,11,11.80
2010,07,13,12,12,6.50
2010,07,13,12,13,4.10
2010,07,13,12,14,5.60
2010,07,13,12,15,8.00
2010,07,13,12,16,7.20
2010,07,13,12,17,13.00
2010,07,13,12,18,2.40
2010,07,13,12,19,13.10
2010,07,13,12,20,6.90
2010,07,13,12,21,4.30
2010,07,13,12,22,13.60
2010,07,13,12,23,16.90
2010,07,13,12,24,12.10
2010,07,13,12,25,5.60
2010,07,13,12,26,13.10
2010,07,13,12,27,18.00
2010,07,13,12,28,14.40
2010,07,13,12,29,10.30
2010,07,13,12,30,21.20
2010,07,13,12,31,4.20
2010,07,13,12,32,1.90
2010,07,13,12,33,5.80
2010,07,13,12,34,1.20
2010,07,13,12,35,9.70
2010,07,13,12,36,8.60
2010,07,13,12,37,11.70
2010,07,13,12,38,5.90
2010,07,13,12,39,13.00
2010,07,13,12,40,1.70
2010,07,13,12,41,11.00
2010,07,13,12,42,13.40
2010,07,13,12,43,7.00
2010,07,13,12,44,8.60
2010,07,13,12,45,6.00
2010,07,13,12,46,3.80
2010,07,13,12,47,4.20
2010,07,13,12,48,14.10
2010,07,13,12,49,18.20
2010,07,13,12,50,6.40
2010,07,13,12,51,1.20
2010,07,13,12,52,6.80
2010,07,13,12,53,3.00
2010,07,13,12,54,4.20
2010,07,13,12,55,0.00
2010,07,13,12,56,4.60
2010,07,13,12,57,7.30
2010,07,13,12,58,5.70
2010,07,13,12,59,4.50
2010,07,13,13,00,2.20
2010,07,13,13,01,3.10
2010,07,13,13,02,0.30
2010,07,13,13,03,1.40
2010,07,13,13,04,2.20
2010,07,13,13,05,3.70
2010,07,13,13,06,2.70
2010,07,13,13,07,3.80
2010,07,13,13,08,5.90
2010,07,13,13,09,4.30
2010,07,13,13,10,5.80
2010,07,13,13,11,5.30
2010,07,13,13,12,4.80
2010,07,13,13,13,3.80
2010,07,13,13,14,1.60
2010,07,13,13,15,7.60
2010,07,13,13,16,14.30
2010,07,13,13,17,9.30
2010,07,13,13,18,13.90
2010,07,13,13,19,8.60
2010,07,13,13,20,13.00
2010,07,13,13,21,10.80
2010,07,13,13,22,9.00
2010,07,13,13,23,9.10
2010,07,13,13,24,11.80
2010,07,13,13,25,14.80
2010,07,13,13,26,10.00
2010,07,13,13,27,6.60
2010,07,13,13,28,4.80
2010,07,13,13,29,3.60
2010,07,13,13,30,4.40
2010,07,13,13,31,3.40
2010,07,13,13,32,2.50
2010,07,13,13,33,5.00
2010,07,13,13,34,2.50
2010,07,13,13,35,5.80
2010,07,13,13,36,4.20
2010,07,13,13,37,8.10
2010,07,13,13,38,9.60
2010,07,13,13,39,10.30
2010,07,13,13,40,6.20
2010,07,13,13,41,2.30
2010,07,13,13,42,1.40
2010,07,13,13,43,2.10
2010,07,13,13,44,14.20
2010,07,13,13,45,6.90
2010,07,13,13,46,5.50
2010,07,13,13,47,6.30
2010,07,13,13,48,3.60
2010,07,13,13,49,5.30
2010,07,13,13,50,6.40
2010,07,13,13,51,5.00
2010,07,13,13,52,5.80
2010,07,13,13,53,4.80
2010,07,13,13,54,2.10
2010,07,13,13,55,4.60
2010,07,13,13,56,6.80
2010,07,13,13,57,10.00
2010,07,13,13,58,9.90
2010,07,13,13,59,11.30
2010,07,13,14,00,6.40
2010,07,13,14,01,10.90
2010,07,13,14,02,2.80
2010,07,13,14,03,8.10
2010,07,13,14,04,9.90
2010,07,13,14,05,3.60
2010,07,13,14,06,6.10
2010,07,13,14,07,4.40
2010,07,13,14,08,1.70
2010,07,13,14,09,0.60
2010,07,13,14,10,3.60
2010,07,13,14,11,3.10
2010,07,13,14,12,11.00
2010,07,13,14,13,14.50
2010,07,13,14,14,7.00
2010,07,13,14,15,6.20
2010,07,13,14,16,4.10
2010,07,13,14,17,1.30
2010,07,13,14,18,0.80
2010,07,13,14,19,5.30
2010,07,13,14,20,12.90
2010,07,13,14,21,12.20
2010,07,13,14,22,15.60
2010,07,13,14,23,8.80
2010,07,13,14,24,6.90
2010,07,13,14,25,5.10
2010,07,13,14,26,14.30
2010,07,13,14,27,10.80
2010,07,13,14,28,9.10
2010,07,13,14,29,7.90
2010,07,13,14,30,11.70
2010,07,13,14,31,16.70
2010,07,13,14,32,15.60
2010,07,13,14,33,14.60
2010,07,13,14,34,7.00
2010,07,13,14,35,5.80
2010,07,13,14,36,13.20
2010,07,13,14,37,13.10
2010,07,13,14,38,8.30
2010,07,13,14,39,2.50
2010,07,13,14,40,9.40
2010,07,13,14,41,4.60
2010,07,13,14,42,6.90
2010,07,13,14,43,3.80
2010,07,13,14,44,1.00
2010,07,13,14,45,3.60
2010,07,13,14,46,9.10
2010,07,13,14,47,9.80
2010,07,13,14,48,4.50
2010,07,13,14,49,4.80
2010,07,13,14,50,2.70
2010,07,13,14,51,10.90
2010,07,13,14,52,6.00
2010,07,13,14,53,4.00
2010,07,13,14,54,7.70
2010,07,13,14,55,4.10
2010,07,13,14,56,1.50
2010,07,13,14,57,2.80
2010,07,13,14,58,3.60
2010,07,13,14,59,4.00
2010,07,13,15,00,3.20
2010,07,13,15,01,1.70
2010,07,13,15,02,2.90
2010,07,13,15,03,4.80
2010,07,13,15,04,7.70
2010,07,13,15,05,3.90
2010,07,13,15,06,9.30
2010,07,13,15,07,8.60
2010,07,13,15,08,4.00
2010,07,13,15,09,6.80
2010,07,13,15,10,1.60
2010,07,13,15,11,1.40
2010,07,13,15,12,1.10
2010,07,13,15,13,3.60
2010,07,13,15,14,6.80
2010,07,13,15,15,7.50
2010,07,13,15,16,6.40
2010,07,13,15,17,6.30
2010,07,13,15,18,6.90
2010,07,13,15,19,5.50
2010,07,13,15,20,3.90
2010,07,13,15,21,4.60
2010,07,13,15,22,4.70
2010,07,13,15,23,9.60
2010,07,13,15,24,7.90
2010,07,13,15,25,5.60
2010,07,13,15,26,5.70
2010,07,13,15,27,9.00
2010,07,13,15,28,6.40
2010,07,13,15,29,7.40
2010,07,13,15,30,3.20
2010,07,13,15,31,3.60
2010,07,13,15,32,1.90
2010,07,13,15,33,0.50
2010,07,13,15,34,6.60
2010,07,13,15,35,3.20
2010,07,13,15,36,1.90
2010,07,13,15,37,8.00
2010,07,13,15,38,11.30
2010,07,13,15,39,2.30
2010,07,13,15,40,10.10
2010,07,13,15,41,6.90
2010,07,13,15,42,11.40
2010,07,13,15,43,9.00
2010,07,13,15,44,1.90
2010,07,13,15,45,10.60
2010,07,13,15,46,10.40
2010,07,13,15,47,5.80
2010,07,13,15,48,10.60
2010,07,13,15,49,9.70
2010,07,13,15,50,7.30
2010,07,13,15,51,5.70
2010,07,13,15,52,12.80
2010,07,13,15,53,5.90
2010,07,13,15,54,4.10
2010,07,13,15,55,1.70
2010,07,13,15,56,11.20
2010,07,13,15,57,12.10
2010,07,13,15,58,6.20
2010,07,13,15,59,0.40
2010,07,13,16,00,5.30
2010,07,13,16,01,5.30
2010,07,13,16,02,0.10
2010,07,13,16,03,2.60
2010,07,13,16,04,4.90
2010,07,13,16,05,3.60
2010,07,13,16,06,5.40
2010,07,13,16,07,9.10
2010,07,13,16,08,10.70
2010,07,13,16,09,6.40
2010,07,13,16,10,9.70
2010,07,13,16,11,18.10
2010,07,13,16,12,15.50
2010,07,13,16,13,10.80
2010,07,13,16,14,6.50
2010,07,13,16,15,7.80
2010,07,13,16,16,5.20
2010,07,13,16,17,2.80
2010,07,13,16,18,1.30
2010,07,13,16,19,5.80
2010,07,13,16,20,9.20
2010,07,13,16,21,13.00
2010,07,13,16,22,4.70
2010,07,13,16,23,0.60
2010,07,13,16,24,0.40
2010,07,13,16,25,2.50
2010,07,13,16,26,4.70
2010,07,13,16,27,5.00
2010,07,13,16,28,5.50
2010,07,13,16,29,7.10
2010,07,13,16,30,6.30
2010,07,13,16,31,13.80
2010,07,13,16,32,12.80
2010,07,13,16,33,10.60
2010,07,13,16,34,8.60
2010,07,13,16,35,8.40
2010,07,13,16,36,12.30
2010,07,13,16,37,4.90
2010,07,13,16,38,1.00
2010,07,13,16,39,0.20
2010,07,13,16,40,2.80
2010,07,13,16,41,2.70
2010,07,13,16,42,8.50
2010,07,13,16,43,5.80
2010,07,13,16,44,3.00
2010,07,13,16,45,1.20
2010,07,13,16,46,5.20
2010,07,13,16,47,10.60
2010,07,13,16,48,13.00
2010,07,13,16,49,10.10
2010,07,13,16,50,14.60
2010,07,13,16,51,17.20
2010,07,13,16,52,7.10
2010,07,13,16,53,4.20
2010,07,13,16,54,4.70
2010,07,13,16,55,6.00
2010,07,13,16,56,7.30
2010,07,13,16,57,9.10
2010,07,13,16,58,12.70
2010,07,13,16,59,0.80
2010,07,13,17,00,8.10
2010,07,13,17,01,7.00
2010,07,13,17,02,7.00
2010,07,13,17,03,0.30
2010,07,13,17,04,3.10
2010,07,13,17,05,10.30
2010,07,13,17,06,8.40
2010,07,13,17,07,12.50
2010,07,13,17,08,12.10
2010,07,13,17,09,10.00
2010,07,13,17,10,10.90
2010,07,13,17,11,9.30
2010,07,13,17,12,6.50
2010,07,13,17,13,3.60
2010,07,13,17,14,4.20
2010,07,13,17,15,13.60
2010,07,13,17,16,6.80
2010,07,13,17,17,0.50
2010,07,13,17,18,7.50
2010,07,13,17,19,2.20
2010,07,13,17,20,1.60
2010,07,13,17,21,2.90
2010,07,13,17,22,7.80
2010,07,13,17,23,7.60
2010,07,13,17,24,4.20
2010,07,13,17,25,6.20
2010,07,13,17,26,5.70
2010,07,13,17,27,1.20
2010,07,13,17,28,4.60
2010,07,13,17,29,8.60
2010,07,13,17,30,13.00
2010,07,13,17,31,3.60
2010,07,13,17,32,5.00
2010,07,13,17,33,1.20
2010,07,13,17,34,6.50
2010,07,13,17,35,13.80
2010,07,13,17,36,8.10
2010,07,13,17,37,7.60
2010,07,13,17,38,8.70
2010,07,13,17,39,6.10
2010,07,13,17,40,9.00
2010,07,13,17,41,11.20
2010,07,13,17,42,5.00
2010,07,13,17,43,10.60
2010,07,13,17,44,5.50
2010,07,13,17,45,5.80
2010,07,13,17,46,8.90
2010,07,13,17,47,5.60
2010,07,13,17,48,3.10
2010,07,13,17,49,1.90
2010,07,13,17,50,4.20
2010,07,13,17,51,8.50
2010,07,13,17,52,5.50
2010,07,13,17,53,4.40
2010,07,13,17,54,10.50
2010,07,13,17,55,9.20
2010,07,13,17,56,9.20
2010,07,13,17,57,5.40
2010,07,13,17,58,5.00
2010,07,13,17,59,11.10
2010,07,13,18,00,7.00
2010,07,13,18,01,7.10
2010,07,13,18,02,12.00